Columbus, OH

11:35 PM EDT on April 27, 2017 (GMT -0400)
Port Columbus International

Weather History for KCMH - March, 2013

Change the Weather History Date:

Monday, March 25, 2013

  Actual Average Record
Temperature  
Mean Temperature 34 °F 45 °F  
Max Temperature 36 °F 55 °F 84 °F (1929)
Min Temperature 32 °F 36 °F 5 °F (1974)
Degree Days  
Heating Degree Days 31 20  
Month to date heating degree days 713 605  
Since 1 July heating degree days 4571 4600  
Cooling Degree Days 0 0  
Month to date cooling degree days 0 0  
Year to date cooling degree days 0 0  
Moisture  
Dew Point 31 °F    
Average Humidity 95    
Maximum Humidity 100    
Minimum Humidity 89    
Precipitation  
Precipitation 0.09 in 0.11 in 2.89 in (1913)
Month to date precipitation 3.04 2.35  
Year to date precipitation 7.11 7.33  
Snow  
Snow 1.20 in 0.10 in 2.00 in (1899)
Month to date snowfall 12.1 3.8  
Since 1 July snowfall 41.1 25.2  
Snow Depth 3.00 in    
Sea Level Pressure  
Sea Level Pressure 29.54 in    
Wind  
Wind Speed 8 mph (NW)    
Max Wind Speed 20 mph    
Max Gust Speed 24 mph    
Visibility 3 miles    
Events Rain , Snow    
T = Trace of Precipitation, MM = Missing Value Source: NWS Daily Summary

Daily Weather History Graph

Daily Weather History Graph

Search for Another Location

Airport or City:

Trip Planner

Search our weather history database for the weather conditions in past years. The results will help you decide how hot, cold, wet, or windy it might be!

Date:

Astronomy

Mar. 25, 2013 Rise Set
Actual Time 7:26 AM EDT 7:48 PM EDT
Civil Twilight 6:59 AM EDT 8:16 PM EDT
Nautical Twilight 6:27 AM EDT 8:48 PM EDT
Astronomical Twilight 5:55 AM EDT 9:20 PM EDT
Moon 6:19 PM EDT (3/25) 6:09 AM EDT (3/25)
Length of Visible Light 13h 16m
Length of Day
12h 22m
Waxing Gibbous, 96% of the Moon is Illuminated
Mar 25
Waxing Gibbous
Mar 27
Full
Apr 3
Last Quarter
Apr 10
New
Apr 18
First Quarter

Hourly Weather History & Observations

Time (EDT) Temp. Windchill Dew Point Humidity Pressure Visibility Wind Dir Wind Speed Gust Speed Precip Events Conditions
12:06 AM 33.8 °F 27.0 °F 32.0 °F 93% 29.42 in 0.5 mi NNE 8.1 mph - 0.02 in Snow Light Snow
12:13 AM 33.8 °F 27.0 °F 32.0 °F 93% 29.41 in 0.5 mi North 8.1 mph - 0.04 in Snow Light Snow
12:51 AM 32.0 °F 24.2 °F 30.9 °F 96% 29.43 in 0.5 mi NNE 9.2 mph - 0.08 in Snow Light Snow
12:58 AM 32.0 °F 28.7 °F 30.2 °F 93% 29.41 in 0.5 mi Variable 3.5 mph - 0.02 in Snow Light Snow
1:19 AM 32.0 °F 28.7 °F 30.2 °F 93% 29.41 in 0.5 mi North 3.5 mph - 0.03 in Snow Light Snow
1:36 AM 32.0 °F 28.7 °F 30.2 °F 93% 29.42 in 0.5 mi NNW 3.5 mph - 0.04 in Snow Light Snow
1:45 AM 32.0 °F 27.5 °F 30.2 °F 93% 29.41 in 1.0 mi NNW 4.6 mph - 0.04 in Snow Light Snow
1:51 AM 32.0 °F 27.5 °F 30.9 °F 96% 29.43 in 1.0 mi NNW 4.6 mph - 0.04 in Snow Light Snow
1:58 AM 32.0 °F 27.5 °F 30.2 °F 93% 29.41 in 1.0 mi NNW 4.6 mph - 0.00 in Snow Light Snow
2:27 AM 32.0 °F 28.7 °F 30.2 °F 93% 29.40 in 1.0 mi North 3.5 mph - 0.01 in Snow Light Snow
2:51 AM 32.0 °F 28.7 °F 32.0 °F 100% 29.42 in 1.0 mi North 3.5 mph - 0.02 in Snow Light Snow
2:58 AM 32.0 °F 28.7 °F 32.0 °F 100% 29.40 in 1.0 mi North 3.5 mph - 0.00 in Snow Light Snow
3:51 AM 32.0 °F - 30.9 °F 96% 29.42 in 1.0 mi Calm Calm - 0.00 in   Overcast
4:11 AM 32.0 °F 28.7 °F 30.2 °F 93% 29.39 in 6.0 mi NNE 3.5 mph - N/A   Overcast
4:51 AM 32.0 °F - 30.2 °F 93% 29.39 in 6.0 mi Calm Calm - N/A   Overcast
5:51 AM 32.0 °F 27.5 °F 30.9 °F 96% 29.41 in 6.0 mi SW 4.6 mph - N/A   Overcast
6:13 AM 32.0 °F 27.5 °F 30.2 °F 93% 29.40 in 4.0 mi SSW 4.6 mph - N/A   Overcast
6:23 AM 32.0 °F 26.4 °F 30.2 °F 93% 29.40 in 1.5 mi SSW 5.8 mph - N/A   Overcast
6:32 AM 32.0 °F 25.6 °F 30.2 °F 93% 29.41 in 1.0 mi SW 6.9 mph - N/A   Overcast
6:39 AM 32.0 °F 25.6 °F 30.2 °F 93% 29.41 in 0.5 mi SSW 6.9 mph - N/A   Overcast
6:51 AM 32.0 °F 26.4 °F 30.9 °F 96% 29.43 in 0.5 mi SW 5.8 mph - N/A   Overcast
7:51 AM 32.0 °F 26.4 °F 30.2 °F 93% 29.42 in 0.5 mi SSW 5.8 mph - N/A   Overcast
8:17 AM 32.0 °F 25.6 °F 30.2 °F 93% 29.43 in 1.2 mi SSW 6.9 mph - 0.00 in Snow Light Snow
8:51 AM 32.0 °F 28.7 °F 32.0 °F 100% 29.44 in 2.0 mi SSW 3.5 mph - N/A Snow Light Snow
9:16 AM 32.0 °F 24.2 °F 30.2 °F 93% 29.44 in 2.0 mi SW 9.2 mph - 0.00 in Snow Light Snow
9:51 AM 32.0 °F 24.8 °F 30.0 °F 92% 29.47 in 2.0 mi SSW 8.1 mph - 0.00 in Snow Light Snow
10:42 AM 32.0 °F 24.8 °F 30.2 °F 93% 29.47 in 3.0 mi SW 8.1 mph - 0.00 in   Overcast
10:51 AM 33.1 °F 26.1 °F 30.0 °F 89% 29.50 in 3.0 mi WSW 8.1 mph - 0.00 in Snow Light Snow
11:51 AM 33.1 °F 27.7 °F 30.0 °F 89% 29.52 in 5.0 mi WSW 5.8 mph - 0.00 in   Overcast
12:14 PM 33.8 °F 27.7 °F 30.2 °F 87% 29.50 in 5.0 mi SW 6.9 mph - N/A   Overcast
12:51 PM 34.0 °F 29.8 °F 30.0 °F 85% 29.54 in 6.0 mi WSW 4.6 mph - N/A   Overcast
1:51 PM 35.1 °F 29.3 °F 30.0 °F 82% 29.56 in 4.0 mi West 6.9 mph - 0.00 in Snow Light Snow
2:51 PM 35.1 °F 30.1 °F 32.0 °F 89% 29.57 in 3.0 mi WNW 5.8 mph - 0.01 in Snow Light Snow
3:08 PM 35.6 °F 29.2 °F 32.0 °F 87% 29.56 in 3.0 mi NW 8.1 mph - 0.00 in Rain Light Rain
3:51 PM 36.0 °F 27.1 °F 32.0 °F 86% 29.60 in 8.0 mi NNW 13.8 mph - 0.00 in Rain , Snow Light Snow
4:47 PM 35.6 °F 27.5 °F 30.2 °F 81% 29.61 in 9.0 mi North 11.5 mph - 0.00 in   Overcast
4:51 PM 35.1 °F 25.2 °F 30.9 °F 85% 29.64 in 10.0 mi NNW 16.1 mph 21.9 mph 0.00 in   Overcast
5:51 PM 35.1 °F 26.4 °F 34.0 °F 96% 29.68 in 2.5 mi NNW 12.7 mph - 0.00 in Snow Light Snow
6:01 PM 35.6 °F 26.2 °F 33.8 °F 93% 29.66 in 5.0 mi NNW 15.0 mph - 0.00 in Snow Light Snow
6:51 PM 34.0 °F 26.6 °F 30.9 °F 89% 29.72 in 4.0 mi NW 9.2 mph - 0.00 in Snow Light Snow
7:33 PM 33.8 °F 25.3 °F 33.8 °F 100% 29.73 in 2.0 mi NW 11.5 mph - 0.01 in Snow Light Snow
7:51 PM 34.0 °F 24.6 °F 34.0 °F 100% 29.76 in 1.5 mi NW 13.8 mph 20.7 mph 0.01 in Snow Light Snow
8:26 PM 33.8 °F 24.8 °F 33.8 °F 100% 29.76 in 3.0 mi NW 12.7 mph - 0.00 in Snow Light Snow
8:51 PM 34.0 °F 24.6 °F 34.0 °F 100% 29.80 in 3.0 mi NW 13.8 mph - 0.01 in Snow Light Snow
9:17 PM 33.8 °F 24.8 °F 33.8 °F 100% 29.79 in 3.0 mi NNW 12.7 mph - 0.01 in Snow Light Snow
9:51 PM 34.0 °F 25.0 °F 33.1 °F 96% 29.83 in 3.0 mi NW 12.7 mph - 0.01 in Snow Light Snow
10:51 PM 34.0 °F 24.6 °F 33.1 °F 96% 29.86 in 3.0 mi NNW 13.8 mph - 0.01 in Snow Light Snow
11:36 PM 33.8 °F 25.3 °F 33.8 °F 100% 29.85 in 2.0 mi NNW 11.5 mph - 0.00 in Snow Light Snow
11:46 PM 33.8 °F 25.3 °F 33.8 °F 100% 29.86 in 3.0 mi NNW 11.5 mph - 0.00 in Snow Light Snow
11:51 PM 34.0 °F 25.0 °F 33.1 °F 96% 29.88 in 3.0 mi NNW 12.7 mph - 0.00 in Snow Light Snow